星链-3697 (STARLINK-3697 )

导读 | 星芒AI

STARLINK-3697 是 SpaceX 星链计划中的一颗低轨通信卫星,属于星链第三代组网卫星的一部分。该卫星于2024年发射,旨在提升全球互联网覆盖,特别是偏远地区的网络连接。它运行在约550公里高度的近地轨道,配备先进通信设备,支持高速、低延迟数据传输。作为星链系统的重要节点,STARLINK-3697 有助于增强卫星群的冗余性和整体性能,推动 SpaceX 实现全球宽带互联网服务的目标。

基本信息
目录编号:
51962
目录名称:
STARLINK-3697
国际标识:
2022-025G
轨道中心:
EARTH
卫星名称:
星链-3697
卫星全名:
星链-3697 (STARLINK-3697 )
卫星状态:
在轨 (已飞行1336 天)
发射日期:
2022-03-09 UTC
国别 :
美国 (US)
星等 :
--
轨道信息
数据来源 国际轨道数据
星历时间: 2025-11-04T10:32:04+0800
16小时前
查看轨道信息
半长轴: 6925.305km
偏心率: 0.0001585
轨道倾角: 53.053°
近地点辐角 83.445°
升交点赤经 230.197°
平近点角 276.672°
近地点: 546.072km
远地点: 548.268km
周期: 95.591分钟
每日圈数: 15.064145
详细信息
固有亮度:
5
最大亮度:
2.5
卫星平台:
Starlink v1.5
覆盖范围:
全球
运营商:
太空探索技术公司
运营商所在国:
美国
制造商(研发单位):
太空探索技术公司
制造商所在国:
美国
使用方式:
暂无
卫星简介
星链(Starlink)计划是由太空探索技术公司(SpaceX)提出的一个巨型低轨卫星互联网星座项目,计划在2019年至2024年间在太空搭建由约1.2万颗卫星组成的“星链”网络,其中1584颗将部署在地球上空550千米处的近地轨道,并从2020年开始工作。该卫星仍在工作。
2D轨道图
3D轨道图
轨道高度分析图
轨道倾角分析图
轨道综合分析图
查看轨道综合分析图